SL-8 R/B, 3048

Orbit data source: Space-Track

SL-8 R/B, 3048 is space debris in LEO originally from a launch on Thu, 23 Nov 1967 UTC launched from the Plesetsk Missile And Space Complex (PKMTR). Debris objects in space refer to the collection of defunct objects orbiting the Earth. Examples of debris include non-operational satellites, rocket bodies, and fragments generated from explosions, collisions, or faulty payload assembly.

Loading next visibility...
Identifier
3048, 1967-116B
Orbit
LEO
Last TLE update
12 hours ago
Origin
Manufacturer
Yuzhnoe
Mission
Spacecraft
Bus & Motor
S3, Unknown motor
Mass
1,434 kg wet, 1,434 kg dry
Launch date (UTC)
1967-11-23 (58 years ago)
Launch vehicle
Unknown
Launch site
Plesetsk Missile And Space Complex (PKMTR)
Object type
Payload
Rocket body
Debris
Shape & HBR
Cyl, 4.2 m
Radar Cross Section
10.179 m², Large (>1 m²)

Expand to show TLE details & history

TLE from 12 hours ago
0 SL-8 R/B
1 03048U 67116B   25183.70947319  .00000393  00000-0  82858-4 0  9995
2 03048  74.0057 160.7765 0007113 347.9095 185.0619 14.62890897 54925
Epoch: 2025-07-02T17:01Z
TLE epoch observation values (Epoch: 2025-07-02T17:01:38.483Z)
Latitude
6.69197°
Longitude
162.46254°
Altitude
690.881 km
Speed
7.509 km/s
True Right ascension
22h 35m 26s
True Declination
6° 39' 07"
Sunlit
Object was in full shadow at epoch
Visualization orbit readout
Latitude
-28.1351°
Longitude
172.21636°
Altitude
697.765 km
Speed
7.504 km/s
Apparent Right ascension
01h 28m 02s
Apparent Declination
-40° 19' 55"
Sunlit
Object is in full shadow
Visualization observer readout
Local Sidereal Time
16:26:15
Azimuth
105.453° ESE
Elevation
-56.297°
Doppler factor
1
Orbital elements
Apogee altitude
686.473 km
Perigee altitude
676.43 km
Semi-major axis
7,059.589 km
Eccentricity
0.00071
Inclination
74.0057°
RAAN
160.7765°
Arg. of periapsis
347.9095°
True anomaly
Unknown
Mean anomaly
185.0619°
Eccentric anomaly
Unknown
Mean motion
3.6591 °/min
Orbital period
98.38 mins
BSTAR
0.000082858
Loading maneuver chart data...
Loading SW <> Apogee altitude chart data...
Loading historical data...
Loading historical data...
Loading historical data...
Loading historical data...
Loading historical data...
Loading historical data...
Loading historical data...

SL-8 R/B Visibility forecast

Observer location: undefined°, undefined°

Span
Click to sort rows by Start time (UTC) header in descending order
Start Az.
Max El. time (UTC)
Max El. Az.
Max El.
End time (UTC)
End Az.
8 mins2025-07-03 09:11:52.469Z358.919° N2025-07-03 09:15:52.469Z59.169° ENE30.482°2025-07-03 09:19:52.469Z128.673° SE
5 mins2025-07-03 10:53:52.469Z296.892° NW2025-07-03 10:55:52.469Z265.005° W20.623°2025-07-03 10:58:52.469Z218.998° SW
7 mins2025-07-03 23:33:52.469Z193.779° SSW2025-07-03 23:36:52.469Z70.161° E44.718°2025-07-03 23:40:52.469Z20.666° NNE
|